Location: Beemte
(52.2555°N, 5.9895°E)
Time: 12:33:02
(UTC+00:00)

NOSS 3-3 (A) - Pass Details

Date: 15 May 2026
Orbit: 691 x 1518 km, 63.4° (Epoch: 11 January)

Event Time Altitude Azimuth Distance (km) Brightness Sun altitude
Rises 19:57:14 0° 210° (SSW) 3,148 6.6 -4.8°
Reaches altitude 10° 19:59:27 10° 206° (SSW) 2,290 5.8 -5.1°
Maximum altitude 20:04:35 61° 127° (SE) 962 3.8 -5.7°
Drops below altitude 10° 20:10:46 10° 49° (NE) 2,750 6.3 -6.4°
Sets 20:13:39 0° 46° (NE) 3,837 7.1 -6.7°
